www.pogodaiklimat.ru

Погода и климат >> Архив погоды >> Литва >> Vilnius


АРХИВ ПОГОДЫ в Vilnius

Время (UTC), дата Ветер
(напр.,м/с)
 
Видим.   Явления Облачность Т
(С)
Тd
(С)
f
(%)
Тe
(С)
Тes
(С)
Комфортность P
(гПа)
Po
(гПа)
Тmin
(С)
Tmax
(С)
R
(мм)
R24
(мм)
S
(см)
09 13.06 СВ 1-4
{5}
20 км 4/1 1000 м
[Cu hum Ac trans Ci fib]
+19.2 +8.2 49 +21 +34 комфорт 1008.2 990.1
12 13.06 СВ 2-4
{5}
20 км 6/4 1500 м
[Cu med, cong Cs]
+22.3 +7.0 37 +23 +31 комфорт 1007.8 989.8
15 13.06 С 2-5
{5}
20 км 8/5 1500 м
[Cu med, cong As trans Cs]
+21.7 +7.1 39 +23 +25 комфорт 1007.9 989.8
18 13.06 штиль 0-2
{5}
20 км 9/0
[Ac As]
+19.7 +7.4 45 +20 +20 тепло 1008.4 990.2 +23.1
21 13.06 штиль 0-2
{2}
20 км 10/10 2000 м
[Sc]
+17.8 +9.0 56 +18 +18 тепло 1009.8 991.5
00 14.06 штиль 0-2
{2}
20 км 10/10 2000 м
[Sc]
+16.7 +9.4 62 +17 +17 тепло 1009.7 991.3
03 14.06 С 2-3
{4}
20 км слабый дождь {морось} 10/0
[As op]
+13.9 +11.4 85 +13 +13 по сезону 1011.0 992.4
06 14.06 С 1-3
{4}
20 км в посл. час дождь {морось} 10/8 2000 м
[Sc Ac As]
+14.9 +12.5 86 +15 +16 тепло 1011.5 993.0 +13.4 0.8
09 14.06 С 2-4
{5}
20 км {дождь} 10/10 2000 м
[Sc]
+17.4 +11.8 70 +18 +18 тепло 1012.4 994.0
12 14.06 С 1-3
{4}
20 км в посл. час дождь 9/9 1500 м
[Cu Sc]
+19.7 +11.0 57 +22 +24 комфорт 1012.6 994.4
15 14.06 С 2-4
{5}
20 км {дождь} 6/3 1500 м
[Cu med, cong Ac trans]
+21.6 +9.5 46 +23 +26 комфорт 1012.0 993.9
18 14.06 штиль 0
{4}
20 км {дождь} 4/4 1500 м
[Sc diur, vesp]
+20.9 +12.4 58 +23 +23 комфорт 1012.6 994.4 +22.1 0.0
21 14.06 В 1-2
{3}
20 км ясно +15.9 +10.6 71 +17 +17 тепло 1013.7 995.2
00 15.06 СВ 1-2
{3}
20 км ясно +13.1 +10.9 86 +13 +13 тепло 1014.1 995.4
03 15.06 штиль 0-2
{3}
19 км ясно +12.2 +10.9 92 +12 +12 по сезону 1014.4 995.7
06 15.06 СВ 2-4
{5}
20 км 4/3 300 м
[St Ci]
+16.3 +12.7 79 +16 +21 тепло 1014.6 996.1 +11.7
09 15.06 В 2-5
{6}
20 км 6/5 1320 м
[Cu med, cong Cs]
+21.7 +11.5 52 +24 +31 комфорт 1014.3 996.2
12 15.06 С 2-4
{6}
20 км 8/5 1500 м
[Cu med, cong Cs]
+22.7 +10.7 47 +25 +31 комфорт 1014.1 996.0
15 15.06 В 4-7
{7}
20 км 9/3 1500 м
[Cu med, cong Ac cuf Cs]
+21.6 +10.0 48 +23 +25 комфорт 1015.0 996.8
18 15.06 В 1-3
{7}
20 км 8/3 1500 м
[Sc diur, vesp Ac cuf Cs]
+20.8 +9.7 49 +24 +24 комфорт 1015.5 997.3 +24.0
21 15.06 штиль 0-1
{3}
20 км 9/0
[Cs]
+16.1 +10.6 70 +16 +16 тепло 1016.5 998.0
00 16.06 штиль 0-1
{3}
20 км 8/0
[Cs]
+13.0 +10.3 84 +13 +13 тепло 1017.0 998.2
03 16.06 штиль 0
{2}
20 км 6/0
[Ac cast Cc]
+11.2 +9.4 89 +11 +11 по сезону 1017.1 998.2
06 16.06 штиль 0-2
{3}
20 км 6/0
[Ac lent Ci]
+18.3 +12.0 67 +19 +24 тепло 1016.6 998.2 +11.1
09 16.06 СВ 3-6
{6}
20 км 6/0
[Ac trans Ci]
+20.3 +9.4 50 +22 +31 комфорт 1016.5 998.2
12 16.06 С 3-9
{9}
20 км 8/0
[Ac As Ci]
+21.3 +10.0 48 +23 +29 комфорт 1016.3 998.1
15 16.06 СВ 3-6
{9}
20 км 4/0
[Ac trans]
+21.9 +9.4 45 +23 +27 комфорт 1015.9 997.8
18 16.06 В 2-3
{6}
20 км ясно +19.6 +12.3 63 +22 +22 комфорт 1016.4 998.0 +22.3
21 16.06 ЮВ 1-2
{4}
20 км ясно +14.0 +11.2 83 +14 +14 по сезону 1017.4 998.7
00 17.06 штиль 0-1
{3}
13 км ясно +11.7 +10.4 92 +11 +11 по сезону 1017.9 999.0
03 17.06 Ю 1-2
{3}
10 км ясно +10.8 +9.8 94 +10 +11 по сезону 1017.7 998.8
06 17.06 Ю 2-4
{5}
20 км 1/0
[Ci fib]
+16.8 +12.3 75 +17 +24 тепло 1016.9 998.4 +10.3
09 17.06 З 2-4
{4}
20 км 5/3 1500 м
[Cu hum Cc]
+23.8 +12.1 48 +26 +36 жарко 1016.1 998.1
12 17.06 З 3-7
{9}
20 км 4/4 1500 м
[Cu hum]
+26.4 +10.2 36 +27 +34 жарко 1015.2 997.3
15 17.06 СЗ 3-5
{8}
20 км 4/1 1500 м
[Cu hum Ac trans Ci fib]
+26.7 +8.0 31 +27 +30 жарко 1014.4 996.5
18 17.06 СЗ 2-3
{7}
20 км 1/0
[Ci fib]
+24.9 +8.6 35 +25 +26 комфорт 1014.7 996.7 +27.3
21 17.06 штиль 0
{3}
20 км ясно +18.0 +9.7 58 +18 +18 тепло 1015.8 997.4
00 18.06 ЮВ 2-3
{3}
20 км 9/0
[Ac As]
+14.5 +9.4 71 +14 +14 тепло 1016.1 997.5
03 18.06 ЮВ 1-2
{3}
20 км 4/4 2000 м
[Sc]
+14.3 +10.3 77 +15 +15 тепло 1016.0 997.4
06 18.06 Ю 1-3
{4}
20 км 8/0
[Ac As]
+21.7 +12.2 55 +24 +28 комфорт 1015.9 997.7 +14.2
09 18.06 штиль 0-5
{5}
20 км 8/3 1500 м
[Cu med, cong Ac As]
+26.1 +11.8 41 +27 +35 жарко 1015.8 997.9
12 18.06 Ю 4-6
{6}
20 км 8/6 2000 м
[Cu med, cong Ac inh]
+27.2 +11.5 38 +28 +31 жарко 1015.4 997.5
15 18.06 штиль 0-2
{11}
20 км в посл. час ливневой дождь 9/6 1500 м
[Cu med, cong Ac cuf]
+19.9 +17.1 84 +22 +24 комфорт 1016.0 997.8
18 18.06 З 1-2
{5}
20 км {ливн. осадки} 9/6 1500 м
[Cu Sc Ac cuf]
+20.8 +14.9 69 +25 +25 комфорт 1016.7 998.5 +29.2 4
21 18.06 СЗ 1-4
{4}
20 км {дождь} 4/0
[Ac As]
+18.2 +14.6 80 +20 +20 тепло 1017.3 998.9
00 19.06 штиль 0-2
{4}
20 км {дождь} 8/0
[Ac trans]
+16.2 +13.1 82 +16 +16 тепло 1017.8 999.2
03 19.06 штиль 0
{2}
19 км 9/9 2000 м
[Sc]
+14.8 +13.0 89 +14 +15 по сезону 1018.0 999.4
06 19.06 ЮЗ 2-3
{3}
20 км 8/5 2000 м
[Cu Sc Ac trans]
+18.8 +11.8 64 +20 +22 тепло 1017.8 999.4 +14.7 0.0
09 19.06 Ю 3-7
{8}
20 км 6/6 1500 м
[Cu med, cong]
+23.1 +9.9 43 +25 +30 комфорт 1016.3 998.2
12 19.06 З 5-9
{12}
20 км 9/9 2000 м
[Cu med, cong]
+23.7 +9.8 41 +25 +26 комфорт 1015.1 997.1
15 19.06 З 5-8
{11}
20 км 10/6 1500 м
[Cu med, cong Ac As]
+22.5 +10.5 47 +24 +25 комфорт 1015.2 997.1
18 19.06 З 6-10
{14}
20 км 8/5 1470 м
[Cu Sc As trans Cs]
+19.5 +12.6 64 +21 +21 комфорт 1015.9 997.6 +24.7
21 19.06 З 3-7
{11}
20 км 3/3 1000 м
[Sc]
+16.5 +10.7 69 +16 +16 тепло 1017.4 998.9
00 20.06 З 2-4
{7}
20 км 3/3 1500 м
[Sc]
+14.2 +11.5 84 +14 +14 тепло 1017.9 999.2
03 20.06 ЮЗ 3-5
{5}
20 км 8/8 450 м
[St]
+13.3 +11.0 86 +12 +12 по сезону 1018.1 999.4

 

Местоположение метеостанции Vilnius (Литва): широта 54.63 долгота 25.28 высота над уровнем моря 156 м.

В архиве по умолчанию представлена погода в Vilnius за последнюю неделю. Архивные данные за месяц целиком и за предыдущие месяцы, начиная с января 2011 года, Вы можете получить, выбрав интересующий диапазон дат из раскрывающегося списка и нажав кнопку "Ввод!".


*Определитесь, кто Вы:
робот инопланетянин человек

Внимание! Время в таблицах - всемирное. Для получения местного времени необходимо прибавить поправку, которая в Vilnius равна 2 ч.

Смотрите также архив погоды в соседних городах и на ближайших метеорологических станциях:

Погода в Ошмянах (Гродненская область, Беларусь) (47 км)
Погода в Varena (Литва) (63 км)
Погода в Ukmerge (Литва) (78 км)
Погода в Лынтупах (Витебская область, Беларусь) (81 км)
Погода в ?ven?ionys (Литва) (81 км)
Погода в Лиде (Гродненская область, Беларусь) (81 км)
Погода в Alytus (Литва) (82 км)
Погода в Kauno (Литва) (97 км)
Погода в Нарочи (Минская область, Беларусь) (97 км)
Погода в Воложине (Минская область, Беларусь) (100 км)

Пояснения к столбцам:

Ветер - указаны скорость ветра в м/с - средняя за 10 мин, порывы в срок и между сроками (в фигурных скобках) и направление, откуда дует ветер: С - северный, СВ - северо-восточный, В - восточный, ЮВ - юго-восточный, Ю - южный, ЮЗ - юго-западный, З - западный, СЗ - северо-западный.
Видимость - горизонтальная дальность видимости в метрах или километрах. При видимости от 1 до 10 км при отсутствии осадков обычно наблюдается дымка, при ухудшении видимости до 1 км и менее - туман. В сухую погоду видимость может ухудшаться дымом, пылью или мглою.
Явления - указаны атмосферные явления, наблюдавшиеся в срок или в последний час перед сроком; фигурными скобками обозначены явления, наблюдавшиеся между сроками (за 1-3 часа до срока); квадратными скобками обозначены град или гололедные отложения с указанием их диаметра в мм.
Облачность - указаны через наклонную черту общая и нижняя облачность в баллах и высота нижней границы облаков в метрах; квадратными скобками обозначены формы облаков: Ci - перистые, Cs - перисто-слоистые, Cc - перисто-кучевые, Ac - высококучевые, As - высокослоистые, Sc - слоисто-кучевые, Ns - слоисто-дождевые, Cu - кучевые, Cb - кучево-дождевые. Подробнее классификацию облаков см. в Атласе облаков (PDF).
T - Температура воздуха - температура, измеренная на высоте 2 м над землей.
Td - Температура точки росы - температура, при понижении до которой содержащийся в воздухе водяной пар достигнет насыщения.
f - Относительная влажность воздуха - влажноcть воздуха, измеренная на высоте 2 м над землей.
Te - Эффективная температура - температура, которую ощущает одетый по сезону человек в тени. Характеристика душности погоды. При расчете учитывается влияние влажности воздуха и скорости ветра на теплоощущения человека.
Tes - Эффективная температура на солнце - температура, которую ощущает человек, с поправкой на солнечный нагрев. Характеристика знойности погоды. Зависит от высоты солнца над горизонтом, облачности и скорости ветра. Ночью, в пасмурную погоду, а также при ветре 12 м/с и более поправка равна нулю.
P - Атмосферное давление - приведенное к уровню моря атмосферное давление.
Po - Атмосферное давление - измеренное на уровне метеостанции атмосферное давление.
Tmin - Минимальная температура - минимум температуры воздуха на высоте 2 м над землей.
Tmax - Максимальная температура - максимум температуры воздуха на высоте 2 м над землей.
R - Количество осадков - Количество выпавших осадков за период времени, мм. При наведении курсора мыши на число - период времени, за который выпало указанное количество осадков.
R24 - Количество осадков - Количество выпавших осадков за 24 часа, мм.
S - Снежный покров - Высота снежного покрова, см. При наведении курсора мыши на число - состояние снежного покрова и степень покрытия местности в баллах.